Hamilton Island, Australia

7:18 AM AEST on November 23, 2017 (GMT +1000)
Hamilton Island

Weather History for YBHM - March, 2013

Change the Weather History Date:

Sunday, March 24, 2013

  Actual Average Record
Temperature  
Mean Temperature 79 °F -  
Max Temperature 82 °F - - ()
Min Temperature 76 °F - - ()
Cooling Degree Days 14    
Growing Degree Days 29 (Base 50)    
Moisture  
Dew Point 75 °F    
Average Humidity 87    
Maximum Humidity 100    
Minimum Humidity 76    
Precipitation  
Precipitation 0.00 in - - ()
Sea Level Pressure  
Sea Level Pressure 29.96 in    
Wind  
Wind Speed 18 mph ()    
Max Wind Speed 22 mph    
Max Gust Speed -    
T = Trace of Precipitation, MM = Missing Value Source: Averaged Metar Reports

Daily Weather History Graph

Daily Weather History Graph

Search for Another Location

Airport or City:

Trip Planner

Search our weather history database for the weather conditions in past years. The results will help you decide how hot, cold, wet, or windy it might be!

Date:

Astronomy

Mar. 24, 2013 Rise Set
Actual Time 6:09 AM AEST 6:11 PM AEST
Civil Twilight 5:46 AM AEST 6:33 PM AEST
Nautical Twilight 5:21 AM AEST 6:59 PM AEST
Astronomical Twilight 4:55 AM AEST 7:25 PM AEST
Moon 3:50 PM AEST (3/24) 2:56 AM AEST (3/24)
Length of Visible Light 12h 46m
Length of Day
12h 02m
Waxing Gibbous, 88% of the Moon is Illuminated
Mar 24
Waxing Gibbous
Mar 27
Full
Apr 3
Last Quarter
Apr 10
New
Apr 18
First Quarter

Hourly Weather History & Observations

Time (AEST) Temp. Heat Index Dew Point Humidity Pressure Visibility Wind Dir Wind Speed Gust Speed Precip Events Conditions
12:00 AM 77 °F - 76 °F 95% 29.98 in - SE 18.4 mph - -  
12:00 AM 77.0 °F - 75.2 °F 94% 29.98 in - SE 18.4 mph - N/A   Unknown
12:30 AM 77.0 °F - 77.0 °F 100% 29.98 in - ESE 17.3 mph - N/A   Unknown
1:00 AM 78.8 °F - 75.2 °F 89% 29.95 in - ESE 17.3 mph - N/A   Unknown
1:30 AM 78.8 °F - 75.2 °F 89% 29.95 in - ESE 19.6 mph - N/A   Unknown
2:00 AM 77.0 °F - 73.4 °F 89% 29.95 in - ESE 20.7 mph - N/A   Unknown
2:30 AM 77.0 °F - 75.2 °F 94% 29.95 in - ESE 19.6 mph - N/A   Unknown
3:00 AM 77 °F - 74 °F 87% 29.94 in - ESE 20.7 mph - -  
3:00 AM 77.0 °F - 73.4 °F 89% 29.95 in - ESE 20.7 mph - N/A   Unknown
3:30 AM 77.0 °F - 75.2 °F 94% 29.95 in - SE 19.6 mph - N/A   Unknown
4:00 AM 77.0 °F - 75.2 °F 94% 29.95 in - SE 20.7 mph - N/A   Unknown
4:30 AM 77.0 °F - 73.4 °F 89% 29.95 in - SE 19.6 mph - N/A   Unknown
5:00 AM 77.0 °F - 75.2 °F 94% 29.95 in - SE 19.6 mph - N/A   Unknown
5:30 AM 77.0 °F - 75.2 °F 94% 29.95 in - ESE 19.6 mph - N/A   Unknown
6:00 AM 77 °F - 74 °F 89% 29.96 in - ESE 20.7 mph - -  
6:00 AM 77.0 °F - 75.2 °F 94% 29.95 in - ESE 20.7 mph - N/A   Unknown
6:30 AM 77.0 °F - 75.2 °F 94% 29.98 in - ESE 20.7 mph - N/A   Unknown
7:00 AM 77.0 °F - 75.2 °F 94% 29.98 in - ESE 18.4 mph - N/A   Unknown
7:30 AM 78.8 °F - 75.2 °F 89% 29.98 in - ESE 21.9 mph - N/A   Unknown
8:00 AM 78.8 °F - 73.4 °F 83% 29.98 in - ESE 18.4 mph - N/A   Unknown
8:30 AM 80.6 °F 85.4 °F 73.4 °F 79% 29.98 in - ESE 19.6 mph - N/A   Unknown
9:00 AM 81 °F - 75 °F 77% 30.00 in - ESE 19.6 mph - -  
9:00 AM 80.6 °F 86.2 °F 75.2 °F 84% 30.01 in - ESE 19.6 mph - N/A   Unknown
9:30 AM 80.6 °F 85.4 °F 73.4 °F 79% 30.01 in - ESE 20.7 mph - N/A   Unknown
10:00 AM 80.6 °F 85.4 °F 73.4 °F 79% 30.01 in - ESE 20.7 mph - N/A   Unknown
10:30 AM 82.4 °F 89.5 °F 75.2 °F 79% 30.01 in - ESE 18.4 mph - N/A   Unknown
11:00 AM 82.4 °F 89.5 °F 75.2 °F 79% 29.98 in - ESE 17.3 mph - N/A   Unknown
11:30 AM 82.4 °F 90.9 °F 77.0 °F 84% 29.98 in - ESE 17.3 mph - N/A   Unknown
12:00 PM 82 °F - 76 °F 76% 29.98 in - ESE 18.4 mph - -  
12:00 PM 82.4 °F 89.5 °F 75.2 °F 79% 29.98 in - ESE 18.4 mph - N/A   Unknown
12:30 PM 82.4 °F 90.9 °F 77.0 °F 84% 29.98 in - SE 17.3 mph - N/A   Unknown
1:00 PM 80.6 °F 86.2 °F 75.2 °F 84% 29.95 in - SE 18.4 mph - N/A   Unknown
1:30 PM 80.6 °F 86.2 °F 75.2 °F 84% 29.95 in - SE 18.4 mph - N/A   Unknown
2:00 PM 82.4 °F 89.5 °F 75.2 °F 79% 29.92 in - ESE 21.9 mph - N/A   Unknown
2:30 PM 80.6 °F 85.4 °F 73.4 °F 79% 29.92 in - SE 21.9 mph - N/A   Unknown
3:00 PM 80 °F - 74 °F 76% 29.91 in - SE 20.7 mph - -  
3:00 PM 80.6 °F 85.4 °F 73.4 °F 79% 29.92 in - SE 20.7 mph - N/A   Unknown
3:30 PM 78.8 °F - 73.4 °F 83% 29.92 in - SE 21.9 mph - N/A   Unknown
4:00 PM 78.8 °F - 73.4 °F 83% 29.92 in - SE 21.9 mph - N/A   Unknown
4:30 PM 78.8 °F - 75.2 °F 89% 29.92 in - SE 20.7 mph - N/A   Unknown
5:00 PM 78.8 °F - 73.4 °F 83% 29.92 in - SE 19.6 mph - N/A   Unknown
5:30 PM 78.8 °F - 75.2 °F 89% 29.92 in - SE 19.6 mph - N/A   Unknown
6:00 PM 78 °F - 74 °F 85% 29.93 in - SE 18.4 mph - -  
6:00 PM 77.0 °F - 75.2 °F 94% 29.92 in - SE 18.4 mph - N/A   Unknown
6:30 PM 77.0 °F - 75.2 °F 94% 29.95 in - SE 17.3 mph - N/A   Unknown
7:00 PM 77.0 °F - 75.2 °F 94% 29.95 in - SE 18.4 mph - N/A   Unknown
7:30 PM 77.0 °F - 73.4 °F 89% 29.95 in - ESE 17.3 mph - N/A   Unknown
8:00 PM 77.0 °F - 73.4 °F 89% 29.95 in - SE 17.3 mph - N/A   Unknown
8:30 PM 77.0 °F - 73.4 °F 89% 29.98 in - SE 16.1 mph - N/A   Unknown
9:00 PM 78 °F - 74 °F 83% 29.99 in - ESE 16.1 mph - -  
9:00 PM 77.0 °F - 73.4 °F 89% 29.98 in - ESE 16.1 mph - N/A   Unknown
9:30 PM 77.0 °F - 73.4 °F 89% 29.98 in - SE 17.3 mph - N/A   Unknown
10:00 PM 77.0 °F - 73.4 °F 89% 29.98 in - SE 13.8 mph - N/A   Unknown
10:30 PM 77.0 °F - 73.4 °F 89% 29.98 in - SE 13.8 mph - N/A   Unknown
11:00 PM 77.0 °F - 75.2 °F 94% 29.98 in - ESE 15.0 mph - N/A   Unknown
11:30 PM 77.0 °F - 73.4 °F 89% 29.98 in - SE 16.1 mph - N/A   Unknown